Theta_e
318 317 315 312 311 310 310 311 311 310 309 303 299 303 305 306 307 311 310 311 308 308 308 310 310 309 310 308 307 304 307 306 308 307 309 304 307 306 307 308 308 309 308 307 307
320 319 318 316 312 311 311 310 309 309 304 301 299 303 305 306 311 310 311 309 308 308 311 308 308 309 308 309 307 306 305 307 304 304 307 304 306 306 309 308 308 308 306 306 308
320 320 319 318 317 313 312 311 310 307 304 299 299 302 305 308 311 310 310 308 308 308 311 309 308 309 310 308 308 307 306 307 308 308 305 304 307 306 307 308 306 307 307 305 308
321 320 320 320 319 318 314 312 312 309 306 299 299 303 307 310 310 309 308 308 308 309 310 307 307 309 308 308 307 309 308 306 308 308 306 307 307 308 305 306 307 304 306 305 306
318 320 320 320 318 319 317 315 313 311 307 301 299 304 308 306 306 309 308 308 308 309 308 307 308 308 309 308 308 308 309 308 308 308 308 308 308 307 306 304 305 304 303 305 304
314 316 318 320 318 319 319 317 315 314 309 303 299 304 309 303 308 308 308 309 309 308 308 307 307 307 307 309 308 308 309 309 308 309 308 308 307 309 305 304 305 304 303 303 302
309 311 315 319 319 319 319 318 317 316 314 301 301 304 306 302 307 308 309 309 309 309 307 308 308 309 307 309 308 308 309 309 309 309 309 308 306 307 306 305 305 304 302 302 301
306 308 311 313 317 319 318 318 318 316 315 300 302 305 301 307 307 308 310 309 309 309 309 309 309 307 308 307 307 309 307 306 307 309 309 306 304 302 303 305 306 305 303 302 301
304 305 308 310 312 317 318 318 317 316 313 302 304 307 301 306 307 308 310 309 309 309 310 309 308 307 308 307 306 305 305 307 306 308 309 305 304 303 304 305 306 305 304 302 300
302 304 306 308 310 315 317 317 317 314 304 303 303 303 303 305 307 308 310 309 307 308 309 308 305 307 306 305 306 306 308 309 307 309 309 309 308 306 305 306 306 305 304 303 301
304 302 305 306 309 313 314 316 309 307 302 307 304 303 305 307 307 308 310 310 308 307 309 308 307 307 307 305 305 305 307 310 309 309 310 308 308 308 305 305 306 305 304 303 302
303 303 303 304 307 310 313 312 311 306 314 306 301 302 304 307 307 307 311 311 309 308 305 307 308 306 305 307 308 309 309 308 307 308 308 303 306 305 303 304 306 306 305 304 302
301 302 302 302 305 308 312 312 308 304 312 311 304 302 303 306 306 308 310 309 309 309 306 306 307 305 307 308 309 308 307 305 305 307 305 305 305 303 303 302 303 304 305 304 303
300 301 301 302 305 309 311 314 310 305 313 313 307 306 305 305 307 307 309 310 310 309 307 306 305 307 308 309 308 312 306 305 307 305 303 302 307 303 301 303 305 303 303 303 302
300 299 301 302 305 309 310 312 305 309 304 306 304 303 305 310 308 308 307 308 311 309 306 308 307 308 309 309 307 308 306 306 307 305 306 304 304 303 301 303 302 303 303 301 300
299 299 299 301 303 304 309 303 307 313 312 309 302 305 306 306 307 307 310 307 307 308 307 307 306 306 307 306 306 304 306 305 303 303 305 303 302 303 301 303 305 303 302 301 297
299 299 299 301 303 304 305 307 313 312 303 303 302 305 306 306 308 309 311 310 311 310 310 309 308 306 306 308 307 306 304 308 306 306 308 302 302 302 301 299 304 302 302 300 296
298 299 299 299 301 303 304 309 311 300 301 303 304 304 306 307 308 309 310 311 310 309 306 311 311 307 305 307 308 306 304 307 306 307 306 302 306 307 302 300 299 301 302 300 295
298 298 298 298 300 302 304 312 309 298 304 305 305 303 305 306 307 309 309 311 311 310 311 311 311 305 305 304 306 309 309 305 306 296 305 306 304 302 299 301 303 299 301 301 296
297 297 298 297 299 301 302 309 301 301 303 304 307 302 300 303 307 307 309 309 310 311 308 311 312 305 305 305 305 306 304 306 305 307 308 306 303 306 304 302 300 300 299 300 296
296 296 295 298 300 301 302 306 301 302 304 306 306 300 304 303 302 307 307 307 309 311 310 311 310 307 305 306 306 306 305 304 304 305 309 308 307 301 303 301 301 300 299 300 297
295 293 296 299 301 301 302 300 304 304 305 305 304 305 304 302 305 305 308 308 306 309 313 311 313 314 308 303 303 304 305 304 308 307 304 305 306 302 300 301 299 299 298 298 296
295 291 296 299 300 301 296 298 303 305 305 305 305 306 304 303 305 305 305 306 305 308 311 311 311 316 314 311 303 303 303 303 303 303 306 309 310 301 300 301 300 299 297 297 294
293 293 294 296 298 296 292 299 302 303 305 305 304 306 305 305 300 303 307 304 304 308 310 311 311 314 316 311 309 306 304 304 305 306 307 307 307 307 304 301 299 298 298 296 295
293 289 287 294 297 297 298 298 299 302 303 306 305 306 306 303 304 301 304 303 304 310 309 309 313 311 313 309 306 305 306 306 306 306 307 310 307 308 305 303 299 297 296 295 295
292 288 293 292 291 296 297 298 299 301 304 304 305 306 307 308 307 305 304 303 306 305 312 309 313 307 314 311 307 310 308 304 305 306 306 306 306 303 302 300 299 298 297 297 297
293 293 289 292 295 292 294 295 297 299 299 300 304 305 307 307 305 305 305 304 305 306 309 308 308 308 313 301 307 312 311 308 309 302 305 307 308 306 304 301 300 298 298 298 298
Wind_Speed
8 8 10 10 10 11 12 13 13 12 12 12 9 8 8 7 2 2 2 2 1 2 2 4 4 4 3 3 3 3 4 2 5 7 3 3 4 1 1 2 2 4 4 3 2
8 8 9 10 11 11 12 14 15 15 13 11 9 8 10 8 0 3 2 1 2 1 5 6 3 3 3 2 2 4 3 7 4 4 3 5 4 6 2 2 3 4 6 5 3
10 9 9 9 10 12 12 14 14 15 14 12 10 8 10 6 1 1 4 2 2 3 5 6 5 2 3 2 1 2 4 3 2 2 4 6 2 5 5 6 8 8 7 5 4
11 10 10 10 10 12 13 14 15 15 16 12 10 10 5 3 3 2 1 1 1 5 5 5 3 4 3 3 1 1 1 1 2 1 3 5 4 3 8 6 3 10 2 4 5
7 8 12 10 11 11 12 13 14 16 15 15 11 10 2 2 2 1 1 1 3 4 3 3 4 4 4 4 2 2 3 1 0 1 1 3 4 7 8 10 6 5 4 5 5
7 8 10 11 11 12 13 13 14 14 16 14 12 9 2 2 3 1 1 2 3 4 3 3 5 3 5 3 2 2 2 1 1 1 1 2 3 0 5 6 7 6 8 7 6
12 9 10 10 11 12 11 13 14 15 16 13 9 9 3 3 2 1 1 1 1 3 3 3 6 3 3 4 3 4 2 2 5 4 2 2 7 12 2 4 9 9 8 7 7
15 13 10 12 11 12 10 13 14 14 14 11 8 4 5 2 2 2 2 3 3 2 3 3 6 6 4 4 5 3 3 2 1 5 2 4 9 4 6 7 10 9 8 7 6
14 14 13 12 12 11 11 13 12 14 13 9 4 2 6 1 2 3 4 4 5 4 4 8 5 4 3 5 4 6 2 3 5 7 3 5 7 2 2 6 9 8 8 7 7
8 13 12 13 12 9 7 10 11 12 3 1 2 3 2 3 3 5 5 7 3 4 3 5 5 4 3 4 5 5 4 4 5 2 2 3 17 11 6 7 11 9 8 8 8
9 12 14 13 9 9 7 5 1 1 1 7 2 3 1 1 3 5 5 6 3 5 4 2 3 8 9 7 3 5 3 3 3 1 3 7 13 16 8 7 12 12 9 9 9
11 9 10 13 10 10 5 1 2 1 5 8 5 5 6 6 2 3 11 5 2 4 4 3 7 4 4 6 4 3 2 4 2 1 2 3 15 15 8 9 15 16 12 11 5
13 9 9 13 13 9 8 6 3 5 2 6 5 5 6 7 6 9 5 6 3 4 6 6 3 3 8 5 6 4 5 4 4 2 3 6 9 6 2 4 5 8 7 9 10
12 9 5 10 5 7 6 12 3 2 2 6 5 6 4 6 5 1 2 6 1 9 5 6 2 5 4 5 6 4 6 4 3 2 4 2 5 7 4 7 7 9 10 10 9
9 11 6 6 7 3 2 12 9 3 2 3 2 0 1 5 5 4 2 3 10 5 6 6 5 4 3 5 8 4 5 5 2 2 2 1 1 8 3 7 10 11 10 10 9
9 9 8 5 5 11 6 16 8 3 10 3 3 5 5 1 2 4 3 5 4 5 2 2 2 3 2 3 2 8 6 6 4 2 2 4 6 5 5 7 5 3 9 10 9
7 8 6 6 2 3 10 8 4 6 3 5 5 5 3 4 4 3 6 4 6 5 4 1 3 1 2 5 3 3 5 2 3 2 6 0 2 9 6 7 5 7 9 9 9
8 7 9 10 11 7 9 3 7 6 8 2 4 4 6 5 3 3 10 7 8 4 2 8 5 8 5 5 7 6 5 5 7 4 3 2 7 7 5 4 6 2 6 7 9
7 8 6 10 12 6 3 14 14 7 8 9 3 5 3 3 5 4 7 9 11 14 7 4 5 0 1 2 4 6 6 3 5 2 3 4 8 11 6 7 3 6 6 11 10
5 5 7 12 12 9 4 14 6 5 6 4 10 5 9 7 6 7 10 7 7 20 10 2 3 1 1 2 1 3 3 2 2 2 4 4 6 6 5 8 8 8 10 9 8
3 0 5 10 15 2 5 7 4 3 2 6 8 5 6 7 6 6 8 2 13 18 20 1 4 3 2 6 7 2 2 2 1 4 5 1 6 7 6 7 12 12 11 12 13
2 1 2 15 5 2 10 6 3 4 3 4 4 4 8 9 6 6 11 4 8 12 13 11 2 4 6 2 1 1 5 6 4 5 3 1 7 3 6 5 8 9 8 6 8
1 3 2 10 7 12 2 3 2 4 4 5 6 4 4 8 3 7 7 3 8 13 17 11 5 2 1 2 1 4 5 3 1 2 6 5 5 1 1 4 3 8 8 8 8
1 2 3 1 2 3 2 9 4 7 12 4 3 3 4 5 2 7 7 2 1 3 13 16 4 7 12 1 2 6 7 13 7 4 5 9 6 5 4 6 4 6 6 8 11
3 4 4 3 8 12 2 2 9 10 11 6 4 10 8 3 2 4 2 3 4 2 6 9 7 7 13 1 1 4 6 11 21 20 10 9 19 15 11 4 6 6 6 9 10
4 2 2 2 3 6 12 13 12 5 7 9 21 13 6 13 15 7 6 4 5 1 4 4 1 4 8 14 7 7 11 12 17 23 21 21 24 6 6 1 4 8 10 13 14
8 5 3 4 2 3 9 6 8 11 10 8 10 13 16 22 8 6 8 9 11 10 6 7 5 4 3 1 3 9 24 20 15 8 16 23 28 4 8 10 9 8 11 15 16
Wind_Direction
317 326 337 348 349 352 351 349 348 342 340 342 345 344 345 344 336 190 244 190 248 297 110 133 126 121 89 81 61 122 69 205 224 164 205 175 158 199 266 148 215 215 197 215 197
296 308 324 336 340 346 351 350 348 347 343 341 345 338 334 335 1 197 194 259 291 197 128 129 127 124 57 85 33 93 129 222 184 189 189 181 182 175 169 216 248 268 249 220 225
286 289 304 317 330 332 341 346 348 348 344 343 339 337 333 325 182 166 169 265 277 165 130 120 121 87 87 68 42 149 197 188 202 229 163 162 220 182 172 239 219 209 232 206 231
278 282 289 302 317 325 328 333 341 345 341 341 340 333 342 346 175 127 127 256 163 150 141 122 100 99 118 160 120 199 287 213 175 92 130 160 135 228 198 222 220 225 175 165 233
313 279 283 288 304 314 320 327 330 337 341 338 338 342 316 49 278 181 354 146 143 141 147 135 136 136 165 133 128 155 189 91 352 107 105 131 224 236 249 240 254 231 227 222 254
308 320 285 272 285 302 310 319 324 327 336 338 338 340 291 198 144 303 343 143 150 144 134 129 174 148 110 97 132 104 93 137 213 207 170 228 266 73 269 200 218 219 234 236 243
306 329 336 270 274 288 298 309 317 320 324 331 342 344 320 215 170 114 72 75 168 152 136 145 129 73 124 104 145 122 354 303 212 203 215 131 280 234 206 169 217 229 239 248 246
296 304 311 320 297 274 287 301 308 318 320 325 330 337 256 241 223 169 112 79 98 164 114 139 123 102 73 117 36 57 55 330 164 157 164 147 265 253 201 179 229 241 246 250 253
282 293 302 305 319 296 272 292 300 308 312 304 313 51 277 297 164 133 120 111 101 105 92 112 72 93 72 93 23 17 225 214 306 201 130 173 271 285 173 198 241 245 244 250 264
304 287 286 303 316 297 305 292 290 300 318 286 320 343 222 229 158 127 115 110 94 104 57 52 59 85 53 109 218 201 217 239 250 206 194 217 263 271 246 222 237 243 245 248 251
311 289 270 289 294 318 311 326 324 283 208 201 196 265 285 268 193 118 117 104 76 65 160 359 127 210 193 181 123 126 191 234 223 172 222 236 268 267 251 220 244 237 236 237 239
303 296 276 292 288 299 273 259 345 105 311 234 238 270 248 201 181 245 137 110 117 187 121 48 237 177 131 163 147 129 164 253 301 128 189 335 281 264 224 225 223 225 221 225 200
287 293 281 279 286 287 217 208 335 26 282 289 194 204 204 186 221 193 148 111 149 173 196 175 228 157 144 156 163 195 186 206 210 351 234 315 287 297 271 250 247 226 210 210 205
281 284 285 278 286 236 208 224 201 56 309 255 227 248 170 166 259 122 231 125 174 208 175 241 217 145 143 184 145 194 198 158 140 58 244 29 278 299 278 283 239 231 207 208 185
274 284 281 276 319 239 280 193 150 85 333 239 176 146 167 196 142 6 306 10 147 208 143 242 182 174 167 203 162 223 123 131 106 120 353 247 274 271 342 284 248 224 213 206 179
273 271 279 286 256 271 289 160 115 110 238 201 128 169 134 202 75 119 89 33 101 126 299 263 302 217 204 83 139 152 81 55 57 67 327 222 174 270 215 215 288 234 210 189 163
265 283 284 244 215 331 179 137 177 196 308 227 182 170 167 155 126 139 152 142 157 118 228 343 229 250 164 89 53 88 103 24 348 358 225 66 155 257 251 224 217 227 212 177 163
258 295 277 253 253 262 166 173 205 232 205 142 119 105 175 151 200 134 144 165 239 100 152 183 260 172 188 196 173 189 172 161 201 200 251 81 236 246 216 236 218 256 193 154 170
305 294 259 248 228 230 213 207 209 186 167 140 81 105 220 230 140 136 180 179 188 193 171 188 241 324 83 143 144 184 204 166 107 48 46 214 280 287 213 235 187 207 178 185 184
318 305 253 241 212 168 240 232 217 195 127 155 173 155 177 197 155 167 174 197 187 197 171 292 278 8 28 96 57 172 176 112 14 182 246 264 277 242 267 224 204 207 212 196 180
269 277 267 202 180 205 219 222 255 254 221 160 199 145 191 183 165 198 200 299 191 175 177 277 160 325 186 193 181 163 210 225 175 171 182 254 258 220 240 223 205 206 202 190 185
201 223 262 173 206 204 228 187 304 258 201 267 127 132 171 165 165 209 202 243 181 151 179 195 1 229 213 63 327 291 230 188 159 206 223 171 265 226 228 270 201 208 186 182 178
214 250 212 199 226 224 313 259 234 320 232 201 216 186 178 172 161 207 185 204 170 155 159 150 206 178 126 317 1 226 201 231 132 78 206 168 256 48 254 288 250 199 182 175 171
177 253 249 247 278 213 143 250 271 220 255 276 232 141 142 186 282 194 193 159 251 163 144 151 167 210 229 72 122 187 200 198 194 203 191 225 292 298 257 253 238 227 192 177 182
202 235 204 225 243 243 225 245 238 239 227 162 217 241 189 192 89 185 135 85 31 149 125 156 192 200 248 218 225 215 231 210 217 225 212 239 230 240 271 245 244 210 174 171 194
164 160 187 253 307 199 229 240 252 301 225 225 231 238 246 242 232 203 133 182 184 174 135 151 200 149 244 227 204 245 252 225 231 235 250 262 269 221 284 66 196 199 190 204 205
195 157 119 257 241 204 247 212 231 219 237 253 272 244 239 237 229 222 192 183 169 160 162 158 153 142 253 343 172 256 234 235 235 205 212 232 245 261 260 238 238 208 200 208 212